7 * 24
多渠道服务支持
BEIDOU-2 M3 是中国北斗二代导航卫星系统中的一颗中轨道地球卫星(MEO),主要用于提供高精度定位、导航和授时服务。该卫星于2012年发射,是北斗区域导航系统的重要组成部分,增强了系统的覆盖范围和稳定性。M3 卫星采用先进的星载原子钟和信号传输技术,提升了定位精度和可靠性,为亚太地区用户提供全天候、全天时的导航服务,标志着中国在全球卫星导航领域的自主创新能力。
中国
(CN)
| 数据来源 | 国际轨道数据 |
| 星历时间: | 2026-09-07T16:14:19+0800 5天前 查看轨道信息 |
| 半长轴: | 27906.309km |
| 偏心率: | 0.0022905 |
| 轨道倾角: | 55.684° |
| 近地点辐角 | 272.494° |
| 升交点赤经 | 302.101° |
| 平近点角 | 87.318° |
| 近地点: | 21464.252km |
| 远地点: | 21592.092km |
| 周期: | 773.238分钟 |
| 每日圈数: | 1.862298 |